This demonstration page uses our WeatherBlox Daily Observations layout. Learn more.

Left ArrowRight Arrow

38.80484, -77.04692

Hourly Observations for November 6, 2021

Temp ( °F °C ) Dew Point ( °F °C ) Humidity (%) Winds ( mph kmh ) Pressure ( in mb ) Visibility ( mi km ) Precip ( " mm )
12:52 am 00:52 Cloudy 40 4.4 33 0.6 77 77 N 5 7 30.42 1030 10 16 N/A
1:52 am 01:52 Mostly Clear 39 3.9 32 undefined 76 76 NNW 5 7 30.41 1030 10 16 N/A
2:52 am 02:52 Mostly Clear 37 2.8 31 -0.6 79 79 NNW 6 9 30.41 1030 10 16 N/A
3:52 am 03:52 Mostly Clear 37 2.8 31 -0.6 79 79 N 5 7 30.41 1030 10 16 N/A
4:52 am 04:52 Mostly Clear 36 2.2 30 -1.1 79 79 N 6 9 30.40 1030 10 16 N/A
5:52 am 05:52 Mostly Cloudy 37 2.8 30 -1.1 76 76 NNW 3 6 30.42 1030 10 16 N/A
6:52 am 06:52 Mostly Cloudy 34 1.1 28 -2.2 79 79 N 8 13 30.41 1030 10 16 N/A
7:52 am 07:52 Partly Cloudy 35 1.7 29 -1.7 78 78 N 8 13 30.41 1030 10 16 N/A
8:52 am 08:52 Mostly Cloudy 37 2.8 30 -1.1 76 76 N 6 9 30.42 1030 10 16 N/A
9:52 am 09:52 Mostly Cloudy 43 6.1 33 0.6 68 68 NE 3 6 30.43 1031 10 16 N/A
10:52 am 10:52 Mostly Cloudy 49 9.4 31 -0.6 50 50 ENE 6 9 30.42 1030 10 16 N/A
11:52 am 11:52 Mostly Cloudy 54 12.2 30 -1.1 40 40 NE 12 19 30.39 1029 10 16 N/A
12:52 pm 12:52 Mostly Cloudy 56 13.3 32 undefined 40 40 NE 12 19 30.35 1028 10 16 N/A
1:52 pm 13:52 Mostly Cloudy 57 13.9 34 1.1 42 42 NE 8 13 30.33 1027 10 16 N/A
2:52 pm 14:52 Mostly Cloudy 57 13.9 32 undefined 39 39 NE 8 13 30.32 1027 10 16 N/A
3:52 pm 15:52 Mostly Cloudy 55 12.8 34 1.1 45 45 NE 9 15 30.30 1026 10 16 N/A
4:52 pm 16:52 Mostly Cloudy 54 12.2 35 1.7 49 49 ENE 7 11 30.29 1026 10 16 N/A
5:52 pm 17:52 Mostly Cloudy 53 11.7 37 2.8 55 55 NNE 7 11 30.28 1026 10 16 N/A
6:52 pm 18:52 Cloudy 53 11.7 35 1.7 51 51 NNE 7 11 30.29 1026 10 16 N/A
7:52 pm 19:52 Mostly Cloudy 50 10 35 1.7 57 57 NE 7 11 30.28 1025 10 16 N/A
8:52 pm 20:52 Mostly Cloudy 49 9.4 35 1.7 59 59 NNE 6 9 30.28 1025 10 16 N/A
9:52 pm 21:52 Cloudy 49 9.4 36 2.2 61 61 NE 7 11 30.28 1025 10 16 N/A
10:52 pm 22:52 Mostly Cloudy 47 8.3 37 2.8 69 69 NE 7 11 30.27 1025 10 16 N/A
11:52 pm 23:52 Mostly Cloudy 45 7.2 37 2.8 74 74 NE 6 9 30.27 1025 10 16 N/A

Powered by AerisWeather